BEIDOU-3 M3

Last updated on Wed May 15 2019 04:07:46 GMT+0100 (British Summer Time)

1 43107U 18003A 19134.17229797 -.00000101 00000-0 00000+0 0 9991 2 43107 55.2417 31.3045 0005138 16.1092 79.8370 1.86232810 9108
UTC large
Height (km)
Speed (km/s)
/
Latitude / Longitude
Inclination (degrees)
Orbital Period (minutes)
Azimuth
Elevation
Range (km)
Doppler Factor

Next 0 passes for location: London (51.5072 / 0.1276)

Sorry there are no passes over London.